User: anonymous   Login
Location: Civry
(47.2902°N, 4.6156°E)
Time: 13:53:57
(UTC+00:00)
Language:

COSMOS 2406 - Orbit

View from above orbital plane
View from above orbital plane
View from above satellite
View from above satellite

Ground track
Ground track

The orbit data is extracted from the following two-line orbital elements,

1 28352U 04021A   20191.77516118 -.00000015 +00000-0 +17858-4 0  9996
2 28352 071.0016 308.9350 0014761 217.0291 142.9812 14.11665037828667
Epoch (UTC): 09 July 2020 18:36:13
Eccentricity: 0.0014761
inclination: 71.0016°
perigee height: 843 km
apogee height: 864 km
right ascension of ascending node: 308.9350°
argument of perigee: 217.0291°
revolutions per day: 14.11665037
mean anomaly at epoch: 142.9812°
orbit number at epoch: 82866

The dashed part of the orbit path shows where the satellite is in the earth's shadow,  

DLR